Hourly Weather Roundup
Issued by NWS Central Illinois

Home | Current Version | Previous Version | Text Only | Print | Product List | Glossary On
Versions: 1 2 3 4 5 6 7 8 9 10 11 12 13 14 15 16 17 18 19 20 21 22 23 24 25 26 27 28 29 30 31 32 33 34 35 36 37 38 39 40 41 42 43 44 45 46 47 48 49 50
000
NZUS43 KILX 280910
HWRILX

AREA WEATHER ROUNDUP
NATIONAL WEATHER SERVICE, LINCOLN IL
400 AM CDT SAT MAR 28 2015


CITY           SKY/WX    TMP DP  RH WIND       PRES   REMARKS
BLOOMINGTON    CLEAR     20  15  81 E3        30.22S
CHAMPAIGN      CLEAR     20  14  77 CALM      30.21S
DECATUR        CLEAR     20  15  81 E7        30.22S WCI  11
EFFINGHAM      CLEAR     25  15  66 NE5       30.23S WCI  20
FLORA          CLEAR     25  20  82 NE5       30.22S WCI  19
GALESBURG      CLEAR     23  15  73 E7        30.20S WCI  14
JACKSONVILLE   CLEAR     25  19  80 E5        30.20S WCI  19
LACON          PTCLDY    18  15  86 CALM      30.24R
LAWRENCEVILLE  CLEAR     25  15  66 N10       30.22S WCI  15
LITCHFIELD     CLEAR     25  18  73 E6        30.20S WCI  18
$$


CITY           SKY/WX    TMP DP  RH WIND       PRES   REMARKS
LINCOLN        CLEAR     23  19  84 CALM      30.24S
MACOMB         CLEAR     22  17  81 E6        30.22S WCI  15
MATTOON        CLEAR     21  15  78 NE6       30.20S WCI  13
MT CARMEL AP   CLEAR     28  19  69 NE3       30.21S
OLNEY-NOBLE AP CLEAR     27  19  74 NE6       30.22S WCI  20
PARIS          CLEAR     21  18  86 CALM      30.22S
PEORIA         CLEAR     23  14  68 E3        30.23S
PONTIAC        CLEAR     19  17  90 CALM      30.24R
RANTOUL        CLEAR     21  17  83 NW3       30.21S
ROBINSON       CLEAR     22  17  81 N6        30.22F WCI  15
SPRINGFIELD    CLEAR     24  18  77 E7        30.22S WCI  16
TAYLORVILLE    CLEAR     25  19  80 E7        30.22R WCI  17
$$

...REGIONAL REPORTS...


CITY           SKY/WX    TMP DP  RH WIND       PRES   REMARKS
CHICAGO O`HARE PTCLDY    21  13  71 N6        30.22S WCI  13
KANKAKEE       CLEAR     21  17  82 NW5       30.23R WCI  15
MOLINE         PTCLDY    20  12  71 E6        30.22R WCI  12
MOUNT VERNON   PTCLDY    21  18  86 CALM      30.20S
PITTSFIELD     PTCLDY    28  19  69 E3        30.20S
QUINCY         PTCLDY    26  15  63 SE6       30.18S WCI  19
ROCKFORD       CLEAR     19  12  74 CALM      30.25S
$$


CITY           SKY/WX    TMP DP  RH WIND       PRES   REMARKS
BURLINGTON     CLEAR     26  15  63 E5        30.19S WCI  20
CEDAR RAPIDS   PTCLDY    21  14  74 E7        30.19R WCI  12
DES MOINES     CLOUDY    33  11  39 SE7       30.16S WCI  27
KIRKSVILLE     CLOUDY    29  19  66 E5        30.16S WCI  24
OTTUMWA        PTCLDY    25  12  58 E5        30.17S WCI  19
ST LOUIS       MOCLDY    28  18  66 E5        30.20S WCI  23
$$


CITY           SKY/WX    TMP DP  RH WIND       PRES   REMARKS
TERRE HAUTE    CLEAR     22  14  71 N7        30.21S WCI  13
EVANSVILLE     CLEAR     26  18  71 NE6       30.21S WCI  19
INDIANAPOLIS   PTCLDY    19  11  70 NW6       30.16S WCI  11
LAFAYETTE      CLEAR     16  13  88 CALM      30.21S
MADISON        CLEAR     16  10  77 E3        30.22S
MILWAUKEE      FAIR      20  11  68 CALM      30.23S
$$




USA.gov is the U.S. government's official web portal to all federal, state and local government web resources and services.